Location: Castiglione Fibocchi
(43.5333°N, 11.7667°E)
Time: 18:12:50
(UTC+00:00)

OAO 2 Rocket - Pass Details

Date: 15 August 2020
Orbit: 676 x 746 km, 35.0° (Epoch: 18 September)

Event Time Altitude Azimuth Distance (km) Brightness Sun altitude
Exits shadow 03:10:53 16° 235° (SW) 1,857 4.8 -11.7°
Maximum altitude 03:14:21 33° 180° (S) 1,232 4.3 -11.2°
Drops below altitude 10° 03:19:00 10° 118° (ESE) 2,226 6.3 -10.5°
Sets 03:21:37 0° 108° (ESE) 3,137 7.3 -10.1°
